owner,sensor,date,latitude,longitude,vertical_datum,sea_water_temperature,qcFlag
Shell,ioos:station:wmo:42882:1,2023-11-01T00:07:00Z,26.2750,-94.4293,7.3,27.6,11111222
Shell,ioos:station:wmo:42882:1,2023-11-01T00:17:00Z,26.2750,-94.4317,7.3,27.6,11111222
Shell,ioos:station:wmo:42882:1,2023-11-01T00:27:00Z,26.2750,-94.4317,7.3,27.6,11111222
Shell,ioos:station:wmo:42882:1,2023-11-01T00:37:00Z,26.2750,-94.4317,7.3,27.6,11111222
Shell,ioos:station:wmo:42882:1,2023-11-01T00:47:00Z,26.2750,-94.4317,7.3,27.6,11111222
Shell,ioos:station:wmo:42882:1,2023-11-01T00:57:00Z,26.2750,-94.4317,7.3,27.6,11111222
Shell,ioos:station:wmo:42882:1,2023-11-01T01:07:00Z,26.2750,-94.4317,7.3,27.6,11111222
Shell,ioos:station:wmo:42882:1,2023-11-01T01:17:00Z,26.2750,-94.4317,7.3,27.6,11111222
Shell,ioos:station:wmo:42882:1,2023-11-01T01:27:00Z,26.2750,-94.4317,7.2,27.6,11111222
Shell,ioos:station:wmo:42882:1,2023-11-01T01:37:00Z,26.2750,-94.4317,7.3,27.6,11111222
Shell,ioos:station:wmo:42882:1,2023-11-01T01:47:00Z,26.2750,-94.4317,7.3,27.5,11111222
Shell,ioos:station:wmo:42882:1,2023-11-01T01:57:00Z,26.2750,-94.4317,7.3,27.5,11111222
Shell,ioos:station:wmo:42882:1,2023-11-01T02:06:00Z,26.2750,-94.4317,7.3,27.5,11111222
Shell,ioos:station:wmo:42882:1,2023-11-01T02:17:00Z,26.2750,-94.4317,7.3,27.5,11111222
Shell,ioos:station:wmo:42882:1,2023-11-01T02:27:00Z,26.2750,-94.4317,7.3,27.5,11111222
Shell,ioos:station:wmo:42882:1,2023-11-01T02:37:00Z,26.2750,-94.4317,7.3,27.5,11111222
Shell,ioos:station:wmo:42882:1,2023-11-01T02:47:00Z,26.2750,-94.4317,7.3,27.5,11111222
Shell,ioos:station:wmo:42882:1,2023-11-01T02:57:00Z,26.2750,-94.4317,7.3,27.4,11111222
Shell,ioos:station:wmo:42882:1,2023-11-01T03:07:00Z,26.2750,-94.4317,7.3,27.4,11111222
Shell,ioos:station:wmo:42882:1,2023-11-01T03:17:00Z,26.2750,-94.4317,7.3,27.4,11111222
Shell,ioos:station:wmo:42882:1,2023-11-01T03:27:00Z,26.2750,-94.4317,7.2,27.4,11111222
Shell,ioos:station:wmo:42882:1,2023-11-01T03:37:00Z,26.2750,-94.4317,7.3,27.4,11111222
Shell,ioos:station:wmo:42882:1,2023-11-01T03:47:00Z,26.2750,-94.4317,7.2,27.4,11111222
Shell,ioos:station:wmo:42882:1,2023-11-01T03:57:00Z,26.2750,-94.4317,7.2,27.4,11111222
Shell,ioos:station:wmo:42882:1,2023-11-01T04:07:00Z,26.2750,-94.4317,7.3,27.4,11111222
Shell,ioos:station:wmo:42882:1,2023-11-01T04:17:00Z,26.2750,-94.4317,7.2,27.4,11111222
Shell,ioos:station:wmo:42882:1,2023-11-01T04:27:00Z,26.2750,-94.4317,7.3,27.4,11111222
Shell,ioos:station:wmo:42882:1,2023-11-01T04:37:00Z,26.2750,-94.4317,7.2,27.4,11111222
Shell,ioos:station:wmo:42882:1,2023-11-01T04:47:00Z,26.2750,-94.4317,7.3,27.4,11111222
Shell,ioos:station:wmo:42882:1,2023-11-01T04:57:00Z,26.2750,-94.4317,7.3,27.4,11111222
Shell,ioos:station:wmo:42882:1,2023-11-01T05:07:00Z,26.2750,-94.4293,7.2,27.4,11111222
Shell,ioos:station:wmo:42882:1,2023-11-01T05:17:00Z,26.2750,-94.4293,7.3,27.4,11111222
Shell,ioos:station:wmo:42882:1,2023-11-01T05:27:00Z,26.2750,-94.4293,7.2,27.4,11111222
Shell,ioos:station:wmo:42882:1,2023-11-01T05:37:00Z,26.2750,-94.4293,7.2,27.4,11111222
Shell,ioos:station:wmo:42882:1,2023-11-01T05:47:00Z,26.2750,-94.4293,7.2,27.4,11111222
Shell,ioos:station:wmo:42882:1,2023-11-01T05:57:00Z,26.2750,-94.4293,7.2,27.4,11111222
Shell,ioos:station:wmo:42882:1,2023-11-01T06:07:00Z,26.2750,-94.4293,7.2,27.4,11111222
Shell,ioos:station:wmo:42882:1,2023-11-01T06:17:00Z,26.2750,-94.4293,7.2,27.3,11111222
Shell,ioos:station:wmo:42882:1,2023-11-01T06:27:00Z,26.2750,-94.4293,7.2,27.3,11111222
Shell,ioos:station:wmo:42882:1,2023-11-01T06:37:00Z,26.2750,-94.4293,7.2,27.3,11111222
Shell,ioos:station:wmo:42882:1,2023-11-01T06:47:00Z,26.2750,-94.4293,7.2,27.3,11111222
Shell,ioos:station:wmo:42882:1,2023-11-01T06:57:00Z,26.2750,-94.4293,7.1,27.3,11111222
Shell,ioos:station:wmo:42882:1,2023-11-01T07:07:00Z,26.2750,-94.4293,7.2,27.3,11111222
Shell,ioos:station:wmo:42882:1,2023-11-01T07:17:00Z,26.2750,-94.4292,7.2,27.3,11111222
Shell,ioos:station:wmo:42882:1,2023-11-01T07:27:00Z,26.2750,-94.4292,7.2,27.3,11111222
Shell,ioos:station:wmo:42882:1,2023-11-01T07:37:00Z,26.2750,-94.4292,7.2,27.3,11111222
Shell,ioos:station:wmo:42882:1,2023-11-01T07:47:00Z,26.2750,-94.4292,7.2,27.3,11111222
Shell,ioos:station:wmo:42882:1,2023-11-01T07:56:00Z,26.2750,-94.4292,7.3,27.3,11111222
Shell,ioos:station:wmo:42882:1,2023-11-01T08:07:00Z,26.2750,-94.4292,7.3,27.3,11111222
Shell,ioos:station:wmo:42882:1,2023-11-01T08:17:00Z,26.2750,-94.4292,7.4,27.3,11111222
Shell,ioos:station:wmo:42882:1,2023-11-01T08:27:00Z,26.2750,-94.4292,7.4,27.3,11111222
Shell,ioos:station:wmo:42882:1,2023-11-01T08:37:00Z,26.2750,-94.4292,7.4,27.3,11111222
Shell,ioos:station:wmo:42882:1,2023-11-01T08:47:00Z,26.2750,-94.4292,7.2,27.3,11111222
Shell,ioos:station:wmo:42882:1,2023-11-01T08:57:00Z,26.2750,-94.4292,7.3,27.3,11111222
Shell,ioos:station:wmo:42882:1,2023-11-01T09:07:00Z,26.2750,-94.4292,7.2,27.3,11111222
Shell,ioos:station:wmo:42882:1,2023-11-01T09:17:00Z,26.2750,-94.4292,7.2,27.3,11111222
Shell,ioos:station:wmo:42882:1,2023-11-01T09:27:00Z,26.2750,-94.4292,7.2,27.3,11111222
Shell,ioos:station:wmo:42882:1,2023-11-01T09:37:00Z,26.2750,-94.4292,7.3,27.3,11111222
Shell,ioos:station:wmo:42882:1,2023-11-01T09:47:00Z,26.2750,-94.4292,7.2,27.3,11111222
Shell,ioos:station:wmo:42882:1,2023-11-01T09:57:00Z,26.2750,-94.4292,7.2,27.3,11111222
Shell,ioos:station:wmo:42882:1,2023-11-01T10:07:00Z,26.2750,-94.4292,7.3,27.3,11111222
Shell,ioos:station:wmo:42882:1,2023-11-01T10:17:00Z,26.2750,-94.4292,7.4,27.3,11111222
Shell,ioos:station:wmo:42882:1,2023-11-01T10:27:00Z,26.2750,-94.4292,7.4,27.3,11111222
Shell,ioos:station:wmo:42882:1,2023-11-01T10:37:00Z,26.2750,-94.4292,7.4,27.3,11111222
Shell,ioos:station:wmo:42882:1,2023-11-01T10:47:00Z,26.2750,-94.4292,7.5,27.3,11111222
Shell,ioos:station:wmo:42882:1,2023-11-01T10:57:00Z,26.2750,-94.4292,7.5,27.2,11111222
Shell,ioos:station:wmo:42882:1,2023-11-01T11:07:00Z,26.2750,-94.4292,7.5,27.3,11111222
Shell,ioos:station:wmo:42882:1,2023-11-01T11:17:00Z,26.2750,-94.4292,7.6,27.3,11111222
Shell,ioos:station:wmo:42882:1,2023-11-01T11:27:00Z,26.2750,-94.4292,7.4,27.3,11111222
Shell,ioos:station:wmo:42882:1,2023-11-01T11:37:00Z,26.2750,-94.4292,7.4,27.3,11111222
Shell,ioos:station:wmo:42882:1,2023-11-01T11:47:00Z,26.2750,-94.4292,7.4,27.3,11111222
Shell,ioos:station:wmo:42882:1,2023-11-01T11:57:00Z,26.2750,-94.4292,7.4,27.3,11111222
Shell,ioos:station:wmo:42882:1,2023-11-01T12:07:00Z,26.2750,-94.4292,7.3,27.3,11111222
Shell,ioos:station:wmo:42882:1,2023-11-01T12:17:00Z,26.2750,-94.4292,7.4,27.3,11111222
Shell,ioos:station:wmo:42882:1,2023-11-01T12:27:00Z,26.2750,-94.4292,7.4,27.3,11111222
Shell,ioos:station:wmo:42882:1,2023-11-01T12:37:00Z,26.2750,-94.4292,7.3,27.3,11111222
Shell,ioos:station:wmo:42882:1,2023-11-01T12:47:00Z,26.2750,-94.4292,7.3,27.3,11111222
Shell,ioos:station:wmo:42882:1,2023-11-01T12:57:00Z,26.2750,-94.4292,7.3,27.3,11111222
Shell,ioos:station:wmo:42882:1,2023-11-01T13:07:00Z,26.2750,-94.4292,7.3,27.3,11111222
Shell,ioos:station:wmo:42882:1,2023-11-01T13:17:00Z,26.2750,-94.4292,7.3,27.3,11111222
Shell,ioos:station:wmo:42882:1,2023-11-01T13:27:00Z,26.2750,-94.4292,7.3,27.3,11111222
Shell,ioos:station:wmo:42882:1,2023-11-01T13:37:00Z,26.2750,-94.4292,7.3,27.3,11111222
Shell,ioos:station:wmo:42882:1,2023-11-01T13:47:00Z,26.2750,-94.4292,7.3,27.3,11111222
Shell,ioos:station:wmo:42882:1,2023-11-01T13:57:00Z,26.2750,-94.4292,7.4,27.3,11111222
Shell,ioos:station:wmo:42882:1,2023-11-01T14:07:00Z,26.2750,-94.4292,7.4,27.3,11111222
Shell,ioos:station:wmo:42882:1,2023-11-01T14:17:00Z,26.2750,-94.4292,7.4,27.3,11111222
Shell,ioos:station:wmo:42882:1,2023-11-01T14:27:00Z,26.2750,-94.4292,7.4,27.3,11111222
Shell,ioos:station:wmo:42882:1,2023-11-01T14:36:00Z,26.2750,-94.4291,7.4,27.2,11111222
Shell,ioos:station:wmo:42882:1,2023-11-01T14:47:00Z,26.2750,-94.4292,7.3,27.3,11111222
Shell,ioos:station:wmo:42882:1,2023-11-01T14:57:00Z,26.2750,-94.4291,7.3,27.3,11111222
Shell,ioos:station:wmo:42882:1,2023-11-01T15:07:00Z,26.2750,-94.4291,7.4,27.3,11111222
Shell,ioos:station:wmo:42882:1,2023-11-01T15:17:00Z,26.2750,-94.4291,7.3,27.3,11111222
Shell,ioos:station:wmo:42882:1,2023-11-01T15:27:00Z,26.2750,-94.4292,7.3,27.3,11111222
Shell,ioos:station:wmo:42882:1,2023-11-01T15:37:00Z,26.2750,-94.4292,7.3,27.3,11111222
Shell,ioos:station:wmo:42882:1,2023-11-01T15:47:00Z,26.2750,-94.4291,7.4,27.3,11111222
Shell,ioos:station:wmo:42882:1,2023-11-01T15:57:00Z,26.2750,-94.4291,7.4,27.3,11111222
Shell,ioos:station:wmo:42882:1,2023-11-01T16:07:00Z,26.2750,-94.4291,7.4,27.3,11111222
Shell,ioos:station:wmo:42882:1,2023-11-01T16:17:00Z,26.2750,-94.4292,7.5,27.3,11111222
Shell,ioos:station:wmo:42882:1,2023-11-01T16:27:00Z,26.2750,-94.4292,7.5,27.3,11111222
Shell,ioos:station:wmo:42882:1,2023-11-01T16:37:00Z,26.2750,-94.4291,7.4,27.3,11111222
Shell,ioos:station:wmo:42882:1,2023-11-01T16:47:00Z,26.2750,-94.4292,7.4,27.3,11111222
Shell,ioos:station:wmo:42882:1,2023-11-01T16:57:00Z,26.2750,-94.4292,7.3,27.3,11111222
Shell,ioos:station:wmo:42882:1,2023-11-01T17:07:00Z,26.2750,-94.4292,7.3,27.3,11111222
Shell,ioos:station:wmo:42882:1,2023-11-01T17:17:00Z,26.2750,-94.4292,7.4,27.3,11111222
Shell,ioos:station:wmo:42882:1,2023-11-01T17:27:00Z,26.2750,-94.4292,7.4,27.3,11111222
Shell,ioos:station:wmo:42882:1,2023-11-01T17:37:00Z,26.2750,-94.4291,7.4,27.3,11111222
Shell,ioos:station:wmo:42882:1,2023-11-01T17:47:00Z,26.2750,-94.4291,7.4,27.3,11111222
Shell,ioos:station:wmo:42882:1,2023-11-01T17:57:00Z,26.2750,-94.4291,7.5,27.2,11111222
Shell,ioos:station:wmo:42882:1,2023-11-01T18:06:00Z,26.2750,-94.4291,7.5,27.2,11111222
Shell,ioos:station:wmo:42882:1,2023-11-01T18:17:00Z,26.2750,-94.4291,7.5,27.3,11111222
Shell,ioos:station:wmo:42882:1,2023-11-01T18:27:00Z,26.2750,-94.4292,7.5,27.3,11111222
Shell,ioos:station:wmo:42882:1,2023-11-01T18:37:00Z,26.2750,-94.4291,7.4,27.3,11111222
Shell,ioos:station:wmo:42882:1,2023-11-01T18:47:00Z,26.2750,-94.4292,7.3,27.3,11111222
Shell,ioos:station:wmo:42882:1,2023-11-01T18:57:00Z,26.2750,-94.4292,7.4,27.3,11111222
Shell,ioos:station:wmo:42882:1,2023-11-01T19:07:00Z,26.2750,-94.4292,7.4,27.2,11111222
Shell,ioos:station:wmo:42882:1,2023-11-01T19:17:00Z,26.2750,-94.4292,7.3,27.2,11111222
Shell,ioos:station:wmo:42882:1,2023-11-01T19:27:00Z,26.2750,-94.4292,7.3,27.2,11111222
Shell,ioos:station:wmo:42882:1,2023-11-01T19:37:00Z,26.2750,-94.4292,7.3,27.2,11111222
Shell,ioos:station:wmo:42882:1,2023-11-01T19:47:00Z,26.2750,-94.4292,7.1,27.2,11111222
Shell,ioos:station:wmo:42882:1,2023-11-01T19:56:00Z,26.2750,-94.4291,7.2,27.2,11111222
Shell,ioos:station:wmo:42882:1,2023-11-01T20:06:00Z,26.2750,-94.4292,7.1,27.2,11111222
Shell,ioos:station:wmo:42882:1,2023-11-01T20:16:00Z,26.2750,-94.4291,7.0,27.2,11111222
Shell,ioos:station:wmo:42882:1,2023-11-01T20:27:00Z,26.2750,-94.4291,7.0,27.2,11111222
Shell,ioos:station:wmo:42882:1,2023-11-01T20:37:00Z,26.2750,-94.4292,7.0,27.2,11111222
Shell,ioos:station:wmo:42882:1,2023-11-01T20:47:00Z,26.2750,-94.4290,7.0,27.2,11111222
Shell,ioos:station:wmo:42882:1,2023-11-01T20:57:00Z,26.2750,-94.4290,7.2,27.2,11111222
Shell,ioos:station:wmo:42882:1,2023-11-01T21:07:00Z,26.2749,-94.4290,7.3,27.2,11111222
Shell,ioos:station:wmo:42882:1,2023-11-01T21:17:00Z,26.2749,-94.4290,7.3,27.2,11111222
Shell,ioos:station:wmo:42882:1,2023-11-01T21:27:00Z,26.2749,-94.4290,7.3,27.2,11111222
Shell,ioos:station:wmo:42882:1,2023-11-01T21:37:00Z,26.2750,-94.4291,7.3,27.2,11111222
Shell,ioos:station:wmo:42882:1,2023-11-01T21:47:00Z,26.2750,-94.4291,7.3,27.2,11111222
Shell,ioos:station:wmo:42882:1,2023-11-01T21:57:00Z,26.2750,-94.4291,7.3,27.2,11111222
Shell,ioos:station:wmo:42882:1,2023-11-01T22:07:00Z,26.2750,-94.4291,7.3,27.2,11111222
Shell,ioos:station:wmo:42882:1,2023-11-01T22:17:00Z,26.2750,-94.4291,7.3,27.2,11111222
Shell,ioos:station:wmo:42882:1,2023-11-01T22:27:00Z,26.2750,-94.4291,7.3,27.2,11111222
Shell,ioos:station:wmo:42882:1,2023-11-01T22:37:00Z,26.2750,-94.4291,7.3,27.2,11111222
Shell,ioos:station:wmo:42882:1,2023-11-01T22:46:00Z,26.2750,-94.4291,7.3,27.1,11111222
Shell,ioos:station:wmo:42882:1,2023-11-01T22:57:00Z,26.2750,-94.4291,7.3,27.2,11111222
Shell,ioos:station:wmo:42882:1,2023-11-01T23:07:00Z,26.2750,-94.4291,7.3,27.2,11111222
Shell,ioos:station:wmo:42882:1,2023-11-01T23:17:00Z,26.2750,-94.4291,7.3,27.2,11111222
Shell,ioos:station:wmo:42882:1,2023-11-01T23:27:00Z,26.2750,-94.4291,7.3,27.2,11111222
Shell,ioos:station:wmo:42882:1,2023-11-01T23:37:00Z,26.2750,-94.4291,7.4,27.1,11111222
Shell,ioos:station:wmo:42882:1,2023-11-01T23:47:00Z,26.2750,-94.4291,7.3,27.1,11111222
Shell,ioos:station:wmo:42882:1,2023-11-01T23:57:00Z,26.2750,-94.4291,7.3,27.1,11111222
Shell,ioos:station:wmo:42882:1,2023-11-02T00:07:00Z,26.2750,-94.4291,7.3,27.1,11111222
Shell,ioos:station:wmo:42882:1,2023-11-02T00:17:00Z,26.2750,-94.4317,7.3,27.1,11111222
Shell,ioos:station:wmo:42882:1,2023-11-02T00:27:00Z,26.2750,-94.4317,7.3,27.1,11111222
Shell,ioos:station:wmo:42882:1,2023-11-02T00:37:00Z,26.2750,-94.4317,7.3,27.1,11111222
Shell,ioos:station:wmo:42882:1,2023-11-02T00:47:00Z,26.2750,-94.4317,7.3,27.1,11111222
Shell,ioos:station:wmo:42882:1,2023-11-02T00:57:00Z,26.2750,-94.4317,7.3,27.1,11111222
Shell,ioos:station:wmo:42882:1,2023-11-02T01:07:00Z,26.2750,-94.4317,7.3,27.1,11111222
Shell,ioos:station:wmo:42882:1,2023-11-02T01:17:00Z,26.2750,-94.4317,7.3,27.1,11111222
Shell,ioos:station:wmo:42882:1,2023-11-02T01:27:00Z,26.2750,-94.4317,7.3,27.1,11111222
Shell,ioos:station:wmo:42882:1,2023-11-02T01:37:00Z,26.2750,-94.4317,7.3,27.1,11111222
Shell,ioos:station:wmo:42882:1,2023-11-02T01:46:00Z,26.2750,-94.4317,7.3,27.1,11111222
Shell,ioos:station:wmo:42882:1,2023-11-02T01:56:00Z,26.2750,-94.4317,7.3,27.0,11111222
Shell,ioos:station:wmo:42882:1,2023-11-02T02:06:00Z,26.2750,-94.4317,7.3,27.0,11111222
Shell,ioos:station:wmo:42882:1,2023-11-02T02:17:00Z,26.2750,-94.4317,7.3,27.1,11111222
Shell,ioos:station:wmo:42882:1,2023-11-02T02:26:00Z,26.2750,-94.4317,7.3,27.1,11111222
Shell,ioos:station:wmo:42882:1,2023-11-02T02:36:00Z,26.2750,-94.4317,7.3,27.1,11111222
Shell,ioos:station:wmo:42882:1,2023-11-02T02:46:00Z,26.2750,-94.4317,7.3,27.0,11111222
Shell,ioos:station:wmo:42882:1,2023-11-02T02:56:00Z,26.2750,-94.4317,7.3,27.1,11111222
Shell,ioos:station:wmo:42882:1,2023-11-02T03:06:00Z,26.2750,-94.4317,7.3,26.9,11111222
Shell,ioos:station:wmo:42882:1,2023-11-02T03:16:00Z,26.2750,-94.4317,7.3,27.1,11111222
Shell,ioos:station:wmo:42882:1,2023-11-02T03:27:00Z,26.2750,-94.4317,7.3,27.1,11111222
Shell,ioos:station:wmo:42882:1,2023-11-02T03:36:00Z,26.2750,-94.4317,7.3,27.0,11111222
Shell,ioos:station:wmo:42882:1,2023-11-02T03:47:00Z,26.2750,-94.4317,7.3,27.1,11111222
Shell,ioos:station:wmo:42882:1,2023-11-02T03:57:00Z,26.2750,-94.4317,7.4,27.1,11111222
Shell,ioos:station:wmo:42882:1,2023-11-02T04:06:00Z,26.2750,-94.4317,7.3,27.0,11111222
Shell,ioos:station:wmo:42882:1,2023-11-02T04:17:00Z,26.2750,-94.4317,7.4,27.1,11111222
Shell,ioos:station:wmo:42882:1,2023-11-02T04:26:00Z,26.2750,-94.4317,7.4,27.0,11111222
Shell,ioos:station:wmo:42882:1,2023-11-02T04:36:00Z,26.2750,-94.4317,7.3,26.9,11111222
Shell,ioos:station:wmo:42882:1,2023-11-02T04:47:00Z,26.2750,-94.4317,7.3,27.1,11111222
Shell,ioos:station:wmo:42882:1,2023-11-02T04:56:00Z,26.2750,-94.4317,7.3,27.0,11111222
Shell,ioos:station:wmo:42882:1,2023-11-02T05:07:00Z,26.2750,-94.4291,7.3,27.1,11111222
Shell,ioos:station:wmo:42882:1,2023-11-02T05:17:00Z,26.2750,-94.4291,7.2,27.1,11111222
Shell,ioos:station:wmo:42882:1,2023-11-02T05:27:00Z,26.2750,-94.4291,7.3,27.1,11111222
Shell,ioos:station:wmo:42882:1,2023-11-02T05:37:00Z,26.2750,-94.4291,7.3,27.1,11111222
Shell,ioos:station:wmo:42882:1,2023-11-02T05:47:00Z,26.2750,-94.4291,7.3,27.1,11111222
Shell,ioos:station:wmo:42882:1,2023-11-02T05:57:00Z,26.2750,-94.4291,7.3,27.1,11111222
Shell,ioos:station:wmo:42882:1,2023-11-02T06:06:00Z,26.2750,-94.4291,7.3,27.0,11111222
Shell,ioos:station:wmo:42882:1,2023-11-02T06:17:00Z,26.2750,-94.4291,7.3,27.1,11111222
Shell,ioos:station:wmo:42882:1,2023-11-02T06:27:00Z,26.2750,-94.4291,7.3,27.1,11111222
Shell,ioos:station:wmo:42882:1,2023-11-02T06:37:00Z,26.2750,-94.4291,7.3,27.1,11111222
Shell,ioos:station:wmo:42882:1,2023-11-02T06:47:00Z,26.2750,-94.4291,7.3,27.1,11111222
Shell,ioos:station:wmo:42882:1,2023-11-02T06:57:00Z,26.2750,-94.4291,7.3,27.1,11111222
Shell,ioos:station:wmo:42882:1,2023-11-02T07:07:00Z,26.2750,-94.4291,7.3,27.1,11111222
Shell,ioos:station:wmo:42882:1,2023-11-02T07:17:00Z,26.2750,-94.4291,7.2,27.1,11111222
Shell,ioos:station:wmo:42882:1,2023-11-02T07:27:00Z,26.2750,-94.4291,7.3,27.1,11111222
Shell,ioos:station:wmo:42882:1,2023-11-02T07:37:00Z,26.2750,-94.4291,7.4,27.1,11111222
Shell,ioos:station:wmo:42882:1,2023-11-02T07:47:00Z,26.2750,-94.4291,7.4,27.1,11111222
Shell,ioos:station:wmo:42882:1,2023-11-02T07:56:00Z,26.2750,-94.4291,7.3,27.0,11111222
Shell,ioos:station:wmo:42882:1,2023-11-02T08:07:00Z,26.2750,-94.4291,7.4,27.1,11111222
Shell,ioos:station:wmo:42882:1,2023-11-02T08:16:00Z,26.2750,-94.4291,7.5,27.0,11111222
Shell,ioos:station:wmo:42882:1,2023-11-02T08:26:00Z,26.2750,-94.4291,7.5,27.0,11111222
Shell,ioos:station:wmo:42882:1,2023-11-02T08:37:00Z,26.2750,-94.4290,7.5,27.0,11111222
Shell,ioos:station:wmo:42882:1,2023-11-02T08:47:00Z,26.2750,-94.4291,7.5,27.0,11111222
Shell,ioos:station:wmo:42882:1,2023-11-02T08:57:00Z,26.2750,-94.4291,7.5,27.1,11111222
Shell,ioos:station:wmo:42882:1,2023-11-02T09:06:00Z,26.2750,-94.4290,7.5,27.1,11111222
Shell,ioos:station:wmo:42882:1,2023-11-02T09:17:00Z,26.2750,-94.4290,7.5,27.1,11111222
Shell,ioos:station:wmo:42882:1,2023-11-02T09:27:00Z,26.2749,-94.4290,7.5,27.1,11111222
Shell,ioos:station:wmo:42882:1,2023-11-02T09:37:00Z,26.2750,-94.4290,7.5,27.1,11111222
Shell,ioos:station:wmo:42882:1,2023-11-02T09:47:00Z,26.2750,-94.4291,7.6,27.1,11111222
Shell,ioos:station:wmo:42882:1,2023-11-02T09:57:00Z,26.2750,-94.4290,7.5,27.0,11111222
Shell,ioos:station:wmo:42882:1,2023-11-02T10:06:00Z,26.2750,-94.4290,7.5,27.0,11111222
Shell,ioos:station:wmo:42882:1,2023-11-02T10:17:00Z,26.2750,-94.4291,7.4,27.1,11111222
Shell,ioos:station:wmo:42882:1,2023-11-02T10:26:00Z,26.2750,-94.4291,7.4,27.0,11111222
Shell,ioos:station:wmo:42882:1,2023-11-02T10:37:00Z,26.2750,-94.4291,7.1,27.1,11111222
Shell,ioos:station:wmo:42882:1,2023-11-02T10:46:00Z,26.2750,-94.4291,6.9,27.1,11111222
Shell,ioos:station:wmo:42882:1,2023-11-02T10:57:00Z,26.2750,-94.4291,6.9,27.1,11111222
Shell,ioos:station:wmo:42882:1,2023-11-02T11:06:00Z,26.2750,-94.4291,6.9,27.1,11111222
Shell,ioos:station:wmo:42882:1,2023-11-02T11:17:00Z,26.2750,-94.4291,6.9,27.2,11111222
Shell,ioos:station:wmo:42882:1,2023-11-02T11:27:00Z,26.2750,-94.4291,6.9,27.2,11111222
Shell,ioos:station:wmo:42882:1,2023-11-02T11:37:00Z,26.2749,-94.4291,6.9,27.2,11111222
Shell,ioos:station:wmo:42882:1,2023-11-02T11:47:00Z,26.2749,-94.4290,6.9,27.3,11111222
Shell,ioos:station:wmo:42882:1,2023-11-02T11:57:00Z,26.2749,-94.4291,6.9,27.3,11111222
Shell,ioos:station:wmo:42882:1,2023-11-02T12:07:00Z,26.2749,-94.4291,6.9,27.3,11111222
Shell,ioos:station:wmo:42882:1,2023-11-02T12:17:00Z,26.2750,-94.4291,6.9,27.3,11111222
Shell,ioos:station:wmo:42882:1,2023-11-02T12:27:00Z,26.2750,-94.4291,6.9,27.3,11111222
Shell,ioos:station:wmo:42882:1,2023-11-02T12:37:00Z,26.2750,-94.4291,6.9,27.3,11111222
Shell,ioos:station:wmo:42882:1,2023-11-02T12:47:00Z,26.2750,-94.4291,6.9,27.3,11111222
Shell,ioos:station:wmo:42882:1,2023-11-02T12:57:00Z,26.2750,-94.4291,6.9,27.3,11111222
Shell,ioos:station:wmo:42882:1,2023-11-02T13:07:00Z,26.2750,-94.4291,6.9,27.3,11111222
Shell,ioos:station:wmo:42882:1,2023-11-02T13:17:00Z,26.2750,-94.4291,6.9,27.3,11111222
Shell,ioos:station:wmo:42882:1,2023-11-02T13:27:00Z,26.2750,-94.4291,6.9,27.3,11111222
Shell,ioos:station:wmo:42882:1,2023-11-02T13:37:00Z,26.2749,-94.4291,7.0,27.3,11111222
Shell,ioos:station:wmo:42882:1,2023-11-02T13:47:00Z,26.2749,-94.4291,6.9,27.3,11111222
Shell,ioos:station:wmo:42882:1,2023-11-02T13:57:00Z,26.2750,-94.4291,6.9,27.3,11111222
Shell,ioos:station:wmo:42882:1,2023-11-02T14:07:00Z,26.2750,-94.4291,6.6,27.3,11111222
Shell,ioos:station:wmo:42882:1,2023-11-02T14:17:00Z,26.2750,-94.4290,6.9,27.4,11111222
Shell,ioos:station:wmo:42882:1,2023-11-02T14:27:00Z,26.2750,-94.4290,6.9,27.4,11111222
Shell,ioos:station:wmo:42882:1,2023-11-02T14:37:00Z,26.2750,-94.4291,7.0,27.4,11111222
Shell,ioos:station:wmo:42882:1,2023-11-02T14:47:00Z,26.2750,-94.4290,6.9,27.4,11111222
Shell,ioos:station:wmo:42882:1,2023-11-02T14:57:00Z,26.2750,-94.4290,6.9,27.4,11111222
Shell,ioos:station:wmo:42882:1,2023-11-02T15:07:00Z,26.2750,-94.4291,6.8,27.4,11111222
Shell,ioos:station:wmo:42882:1,2023-11-02T15:17:00Z,26.2750,-94.4290,7.3,27.4,11111222
Shell,ioos:station:wmo:42882:1,2023-11-02T15:27:00Z,26.2750,-94.4290,7.2,27.4,11111222
Shell,ioos:station:wmo:42882:1,2023-11-02T15:37:00Z,26.2750,-94.4291,7.0,27.4,11111222
Shell,ioos:station:wmo:42882:1,2023-11-02T15:43:00Z,26.2750,-94.4290,7.0,27.4,11111222
Shell,ioos:station:wmo:42882:1,2023-11-02T15:57:00Z,26.2750,-94.4291,7.0,27.2,11111222
Shell,ioos:station:wmo:42882:1,2023-11-02T16:07:00Z,26.2750,-94.4291,6.9,27.4,11111222
Shell,ioos:station:wmo:42882:1,2023-11-02T16:17:00Z,26.2750,-94.4290,7.2,27.4,11111222
Shell,ioos:station:wmo:42882:1,2023-11-02T16:26:00Z,26.2750,-94.4290,6.6,27.4,11111222
Shell,ioos:station:wmo:42882:1,2023-11-02T16:37:00Z,26.2750,-94.4291,6.9,27.4,11111222
Shell,ioos:station:wmo:42882:1,2023-11-02T16:46:00Z,26.2750,-94.4291,6.4,27.4,11111222
Shell,ioos:station:wmo:42882:1,2023-11-02T16:57:00Z,26.2750,-94.4291,7.0,27.4,11111222
Shell,ioos:station:wmo:42882:1,2023-11-02T17:07:00Z,26.2750,-94.4291,7.1,27.4,11111222
Shell,ioos:station:wmo:42882:1,2023-11-02T17:17:00Z,26.2750,-94.4291,6.9,27.4,11111222
Shell,ioos:station:wmo:42882:1,2023-11-02T17:20:00Z,26.2750,-94.4290,6.9,27.4,11111222
Shell,ioos:station:wmo:42882:1,2023-11-02T17:37:00Z,26.2750,-94.4291,6.9,27.3,11111222
Shell,ioos:station:wmo:42882:1,2023-11-02T17:47:00Z,26.2750,-94.4290,6.9,27.4,11111222
Shell,ioos:station:wmo:42882:1,2023-11-02T17:57:00Z,26.2750,-94.4290,7.0,27.4,11111222
Shell,ioos:station:wmo:42882:1,2023-11-02T18:07:00Z,26.2750,-94.4290,6.9,27.4,11111222
Shell,ioos:station:wmo:42882:1,2023-11-02T18:17:00Z,26.2750,-94.4291,6.9,27.4,11111222
Shell,ioos:station:wmo:42882:1,2023-11-02T18:27:00Z,26.2750,-94.4291,6.9,27.4,11111222
Shell,ioos:station:wmo:42882:1,2023-11-02T18:37:00Z,26.2750,-94.4291,6.9,27.4,11111222
Shell,ioos:station:wmo:42882:1,2023-11-02T18:47:00Z,26.2750,-94.4291,6.9,27.3,11111222
Shell,ioos:station:wmo:42882:1,2023-11-02T18:57:00Z,26.2750,-94.4291,6.9,27.3,11111222
Shell,ioos:station:wmo:42882:1,2023-11-02T19:07:00Z,26.2750,-94.4291,6.9,27.3,11111222
Shell,ioos:station:wmo:42882:1,2023-11-02T19:17:00Z,26.2750,-94.4291,6.9,27.3,11111222
Shell,ioos:station:wmo:42882:1,2023-11-02T19:26:00Z,26.2750,-94.4291,6.9,27.3,11111222
Shell,ioos:station:wmo:42882:1,2023-11-02T19:37:00Z,26.2750,-94.4290,6.8,27.3,11111222
Shell,ioos:station:wmo:42882:1,2023-11-02T19:46:00Z,26.2750,-94.4291,6.7,27.3,11111222
Shell,ioos:station:wmo:42882:1,2023-11-02T19:57:00Z,26.2750,-94.4291,7.1,27.3,11111222
Shell,ioos:station:wmo:42882:1,2023-11-02T20:07:00Z,26.2750,-94.4291,7.0,27.3,11111222
Shell,ioos:station:wmo:42882:1,2023-11-02T20:16:00Z,26.2749,-94.4290,7.0,27.2,11111222
Shell,ioos:station:wmo:42882:1,2023-11-02T20:26:00Z,26.2750,-94.4290,6.9,27.2,11111222
Shell,ioos:station:wmo:42882:1,2023-11-02T20:37:00Z,26.2750,-94.4291,6.8,27.2,11111222
Shell,ioos:station:wmo:42882:1,2023-11-02T20:47:00Z,26.2750,-94.4291,6.7,27.3,11111222
Shell,ioos:station:wmo:42882:1,2023-11-02T20:57:00Z,26.2750,-94.4290,6.7,27.3,11111222
Shell,ioos:station:wmo:42882:1,2023-11-02T21:06:00Z,26.2750,-94.4290,6.6,27.2,11111222